This is the latest recevied weather packets stored in our database for station/object WP4PW. If no packets are shown the sender has not sent any weather packets the latest 10 day(s).
| Time | Temp. | Humidity | Pressure | Rain* | Wind** | Luminosity | Snow |
|---|---|---|---|---|---|---|---|
| 1777560473 | 28.89° C | 81% | 1018.1 hPa | 0 mm | - | 680 W/m² | - |
| 1777560170 | 28.89° C | 80% | 1018.1 hPa | 0 mm | - | 680 W/m² | - |
| 1777559867 | 29.44° C | 80% | 1018.2 hPa | 0 mm | - | 345 W/m² | - |
| 1777559562 | 29.44° C | 79% | 1018.1 hPa | 0 mm | - | 749 W/m² | - |
| 1777559260 | 29.44° C | 80% | 1018 hPa | 0 mm | - | 720 W/m² | - |
| 1777558950 | 28.89° C | 81% | 1018.1 hPa | 0 mm | - | 723 W/m² | - |
| 1777558646 | 28.89° C | 82% | 1018.1 hPa | 0 mm | - | 741 W/m² | - |
| 1777558341 | 28.89° C | 82% | 1018.1 hPa | 0 mm | - | 738 W/m² | - |
| 1777558039 | 29.44° C | 81% | 1018.1 hPa | 0 mm | - | 684 W/m² | - |
| 1777557735 | 29.44° C | 81% | 1018.1 hPa | 0 mm | - | 495 W/m² | - |
| 1777557432 | 28.89° C | 82% | 1018.3 hPa | 0 mm | - | 640 W/m² | - |
| 1777557128 | 28.89° C | 82% | 1018.2 hPa | 0 mm | - | 711 W/m² | - |
| 1777556823 | 28.89° C | 82% | 1018.3 hPa | 0 mm | - | 564 W/m² | - |
| 1777556520 | 28.89° C | 81% | 1018.2 hPa | 0 mm | - | 512 W/m² | - |
| 1777556219 | 28.33° C | 82% | 1018.3 hPa | 0 mm | - | 370 W/m² | - |
| 1777555910 | 28.33° C | 81% | 1018.2 hPa | 0 mm | - | 384 W/m² | - |
| 1777555605 | 28.89° C | 81% | 1018.3 hPa | 0 mm | - | 391 W/m² | - |
| 1777555303 | 28.33° C | 81% | 1018.4 hPa | 0 mm | - | 346 W/m² | - |
| 1777554999 | 28.33° C | 82% | 1018.3 hPa | 0 mm | - | 374 W/m² | - |
| 1777554696 | 28.33° C | 83% | 1018.3 hPa | 0 mm | - | 336 W/m² | - |
| 1777554393 | 28.33° C | 82% | 1018.3 hPa | 0 mm | - | 319 W/m² | - |
| 1777554090 | 28.33° C | 83% | 1018.2 hPa | 0 mm | - | 296 W/m² | - |
| 1777553786 | 28.33° C | 84% | 1018 hPa | 0 mm | - | 266 W/m² | - |
| 1777553483 | 27.78° C | 84% | 1018.1 hPa | 0 mm | - | 259 W/m² | - |
| 1777553179 | 27.78° C | 85% | 1018 hPa | 0 mm | - | 245 W/m² | - |
* Rain latest hour (hover to see other rain measurements)
** Current wind speed in m/s (hover to see current wind gust speed)